Weather History for KVWU - February, 2014

Change the Weather History Date:

Wednesday, February 5, 2014

  Actual Average (KBDE) Record (KBDE)
Temperature  
Mean Temperature -7 °F -  
Max Temperature 0 °F 17 °F 45 °F (1990)
Min Temperature -14 °F -5 °F -40 °F (1936)
Degree Days  
Heating Degree Days 72    
Moisture  
Dew Point -13 °F    
Average Humidity 76    
Maximum Humidity 84    
Minimum Humidity 66    
Precipitation  
Precipitation 0.00 in - - ()
Sea Level Pressure  
Sea Level Pressure 30.47 in    
Wind  
Wind Speed 6 mph (West)    
Max Wind Speed 13 mph    
Max Gust Speed -    
Visibility 10 miles    
Events Snow    
Averages and records for this station are not official NWS values.
T = Trace of Precipitation, MM = Missing Value Source: NWS Daily Summary

Daily Weather History Graph

Daily Weather History Graph

Search for Another Location

Airport or City:

Trip Planner

Search our weather history database for the weather conditions in past years. The results will help you decide how hot, cold, wet, or windy it might be!

Date:

Astronomy

Feb. 05, 2014 Rise Set
Actual Time 7:40 AM CST 5:24 PM CST
Civil Twilight 7:07 AM CST 5:57 PM CST
Nautical Twilight 6:30 AM CST 6:34 PM CST
Astronomical Twilight 5:54 AM CST 7:10 PM CST
Moon 10:23 AM CST (2/5) No Moon Set
Length of Visible Light 10h 49m
Length of Day
9h 43m
Waxing Crescent, 39% of the Moon is Illuminated
Feb 5
Waxing Crescent
Feb 6
First Quarter
Feb 14
Full
Feb 22
Last Quarter
Mar 1
New

Hourly Weather History & Observations

Time (CST) Temp. Windchill Dew Point Humidity Pressure Visibility Wind Dir Wind Speed Gust Speed Precip Events Conditions
12:17 AM -14.8 °F -29.1 °F -20.2 °F 77% 30.50 in 10.0 mi West 5.8 mph - N/A   Clear
12:37 AM -14.8 °F -29.1 °F -20.2 °F 77% 30.49 in 10.0 mi WNW 5.8 mph - N/A   Clear
12:56 AM -11.2 °F -23.0 °F -16.6 °F 77% 30.50 in 10.0 mi WNW 4.6 mph - N/A   Clear
1:17 AM -11.2 °F -20.6 °F -16.6 °F 77% 30.50 in 10.0 mi WNW 3.5 mph - N/A   Clear
1:37 AM -11.2 °F -20.6 °F -16.6 °F 77% 30.50 in 10.0 mi NW 3.5 mph - N/A   Clear
1:56 AM -11.2 °F -23.0 °F -16.6 °F 77% 30.50 in 10.0 mi NW 4.6 mph - N/A   Clear
2:17 AM -11.2 °F -23.0 °F -16.6 °F 77% 30.51 in 10.0 mi WNW 4.6 mph - N/A   Clear
2:37 AM -11.2 °F - -16.6 °F 77% 30.52 in 10.0 mi Calm Calm - N/A   Clear
2:56 AM -13.0 °F - -18.4 °F 77% 30.52 in 10.0 mi Calm Calm - N/A   Mostly Cloudy
3:17 AM -13.0 °F -22.7 °F -16.6 °F 84% 30.52 in 10.0 mi West 3.5 mph - N/A   Overcast
3:36 AM -11.2 °F - -16.6 °F 77% 30.52 in 10.0 mi Calm Calm - N/A   Overcast
3:57 AM -11.2 °F -20.6 °F -16.6 °F 77% 30.52 in 10.0 mi SW 3.5 mph - N/A   Overcast
4:17 AM -11.2 °F -24.8 °F -16.6 °F 77% 30.53 in 10.0 mi SW 5.8 mph - N/A   Overcast
4:36 AM -11.2 °F -24.8 °F -16.6 °F 77% 30.53 in 10.0 mi SW 5.8 mph - N/A   Overcast
4:57 AM -11.2 °F -23.0 °F -16.6 °F 77% 30.52 in 10.0 mi WSW 4.6 mph - N/A   Overcast
5:17 AM -11.2 °F - -14.8 °F 84% 30.52 in 10.0 mi Calm Calm - N/A   Overcast
5:36 AM -9.4 °F -20.9 °F -14.8 °F 77% 30.51 in 10.0 mi WSW 4.6 mph - N/A Snow Light Snow
5:57 AM -9.4 °F -18.6 °F -14.8 °F 77% 30.50 in 10.0 mi West 3.5 mph - N/A Snow Light Snow
6:17 AM -7.6 °F -16.5 °F -11.2 °F 84% 30.50 in 10.0 mi WNW 3.5 mph - N/A   Overcast
6:36 AM -7.6 °F -20.6 °F -11.2 °F 84% 30.50 in 10.0 mi NW 5.8 mph - N/A   Overcast
6:57 AM -7.6 °F -20.6 °F -11.2 °F 84% 30.50 in 10.0 mi NW 5.8 mph - N/A   Overcast
7:16 AM -7.6 °F -18.8 °F -11.2 °F 84% 30.49 in 10.0 mi NW 4.6 mph - N/A   Overcast
7:36 AM -5.8 °F -18.4 °F -9.4 °F 84% 30.49 in 10.0 mi WNW 5.8 mph - N/A   Overcast
7:57 AM -5.8 °F -18.4 °F -9.4 °F 84% 30.50 in 10.0 mi NW 5.8 mph - N/A   Overcast
8:16 AM -5.8 °F -21.2 °F -9.4 °F 84% 30.50 in 10.0 mi NW 8.1 mph - N/A   Overcast
8:36 AM -5.8 °F -21.2 °F -9.4 °F 84% 30.50 in 10.0 mi WNW 8.1 mph - N/A   Overcast
8:57 AM -5.8 °F -24.4 °F -9.4 °F 84% 30.50 in 10.0 mi WNW 11.5 mph - N/A   Mostly Cloudy
9:16 AM -5.8 °F -25.2 °F -11.2 °F 77% 30.51 in 10.0 mi NW 12.7 mph - N/A   Overcast
9:37 AM -5.8 °F -23.4 °F -11.2 °F 77% 30.51 in 10.0 mi NW 10.4 mph - N/A   Overcast
9:57 AM -5.8 °F -22.4 °F -11.2 °F 77% 30.51 in 7.0 mi WNW 9.2 mph - N/A   Overcast
10:16 AM -5.8 °F -23.4 °F -11.2 °F 77% 30.51 in 10.0 mi NW 10.4 mph - N/A   Overcast
10:37 AM -5.8 °F -23.4 °F -11.2 °F 77% 30.51 in 10.0 mi WNW 10.4 mph - N/A   Overcast
10:57 AM -5.8 °F -21.2 °F -11.2 °F 77% 30.51 in 10.0 mi WNW 8.1 mph - N/A   Overcast
11:16 AM -4.0 °F -20.2 °F -11.2 °F 71% 30.51 in 10.0 mi NW 9.2 mph - N/A   Overcast
11:37 AM -2.2 °F -16.8 °F -11.2 °F 66% 30.51 in 10.0 mi NW 8.1 mph - N/A   Overcast
11:57 AM -2.2 °F -15.6 °F -11.2 °F 66% 30.50 in 7.0 mi WNW 6.9 mph - N/A   Overcast
12:16 PM -2.2 °F -15.6 °F -9.4 °F 71% 30.50 in 7.0 mi WNW 6.9 mph - N/A   Overcast
12:37 PM -2.2 °F -15.6 °F -11.2 °F 66% 30.50 in 10.0 mi West 6.9 mph - N/A   Overcast
12:57 PM -2.2 °F -16.8 °F -9.4 °F 71% 30.49 in 10.0 mi WNW 8.1 mph - N/A   Overcast
1:16 PM -2.2 °F -16.8 °F -9.4 °F 71% 30.49 in 10.0 mi West 8.1 mph - N/A   Overcast
1:37 PM -0.4 °F -13.4 °F -9.4 °F 66% 30.47 in 10.0 mi West 6.9 mph - N/A   Overcast
1:57 PM -0.4 °F -15.7 °F -9.4 °F 66% 30.47 in 10.0 mi WSW 9.2 mph - N/A   Overcast
2:16 PM -0.4 °F -15.7 °F -9.4 °F 66% 30.47 in 10.0 mi West 9.2 mph - N/A   Overcast
2:37 PM -0.4 °F -16.7 °F -9.4 °F 66% 30.46 in 10.0 mi West 10.4 mph - N/A   Mostly Cloudy
2:57 PM -0.4 °F -13.4 °F -9.4 °F 66% 30.46 in 10.0 mi West 6.9 mph - N/A   Scattered Clouds
3:16 PM -0.4 °F -14.7 °F -9.4 °F 66% 30.46 in 10.0 mi West 8.1 mph - N/A   Clear
3:37 PM -0.4 °F -15.7 °F -9.4 °F 66% 30.46 in 10.0 mi WSW 9.2 mph - N/A   Clear
3:57 PM -2.2 °F -16.8 °F -9.4 °F 71% 30.46 in 10.0 mi WSW 8.1 mph - N/A   Clear
4:16 PM -2.2 °F -16.8 °F -11.2 °F 66% 30.45 in 10.0 mi West 8.1 mph - N/A   Clear
4:37 PM -4.0 °F -19.0 °F -11.2 °F 71% 30.45 in 10.0 mi West 8.1 mph - N/A   Clear
4:57 PM -5.8 °F -22.4 °F -13.0 °F 71% 30.45 in 10.0 mi West 9.2 mph - N/A   Clear
5:16 PM -5.8 °F -22.4 °F -13.0 °F 71% 30.44 in 10.0 mi West 9.2 mph - N/A   Clear
5:37 PM -5.8 °F -21.2 °F -13.0 °F 71% 30.44 in 10.0 mi West 8.1 mph - N/A   Clear
5:57 PM -7.6 °F -23.4 °F -13.0 °F 77% 30.44 in 10.0 mi West 8.1 mph - N/A   Clear
6:16 PM -7.6 °F -23.4 °F -13.0 °F 77% 30.44 in 10.0 mi West 8.1 mph - N/A   Clear
6:37 PM -7.6 °F -23.4 °F -14.8 °F 71% 30.43 in 10.0 mi West 8.1 mph - N/A   Clear
6:57 PM -7.6 °F -23.4 °F -14.8 °F 71% 30.43 in 10.0 mi WSW 8.1 mph - N/A   Clear
7:16 PM -7.6 °F -23.4 °F -14.8 °F 71% 30.42 in 10.0 mi West 8.1 mph - N/A   Clear
7:37 PM -7.6 °F -22.1 °F -14.8 °F 71% 30.42 in 10.0 mi WSW 6.9 mph - N/A   Clear
7:57 PM -9.4 °F -26.8 °F -14.8 °F 77% 30.41 in 10.0 mi WSW 9.2 mph - N/A   Clear
8:16 PM -9.4 °F -26.8 °F -14.8 °F 77% 30.41 in 10.0 mi WSW 9.2 mph - N/A   Clear
8:37 PM -9.4 °F -26.8 °F -14.8 °F 77% 30.41 in 10.0 mi WSW 9.2 mph - N/A   Clear
8:57 PM -11.2 °F -29.0 °F -14.8 °F 84% 30.41 in 10.0 mi SW 9.2 mph - N/A   Clear
9:16 PM -11.2 °F -27.8 °F -16.6 °F 77% 30.41 in 10.0 mi SW 8.1 mph - N/A   Clear
9:37 PM -11.2 °F -27.8 °F -16.6 °F 77% 30.40 in 10.0 mi SW 8.1 mph - N/A   Clear
9:57 PM -11.2 °F -29.0 °F -16.6 °F 77% 30.40 in 10.0 mi SW 9.2 mph - N/A   Clear
10:16 PM -11.2 °F -27.8 °F -16.6 °F 77% 30.39 in 10.0 mi SW 8.1 mph - N/A   Clear
10:37 PM -13.0 °F -30.0 °F -16.6 °F 84% 30.39 in 10.0 mi SW 8.1 mph - N/A   Clear
10:57 PM -13.0 °F -32.4 °F -16.6 °F 84% 30.38 in 10.0 mi SW 10.4 mph - N/A   Clear
11:16 PM -11.2 °F -30.1 °F -16.6 °F 77% 30.37 in 10.0 mi SW 10.4 mph - N/A   Clear
11:37 PM -13.0 °F -32.4 °F -16.6 °F 84% 30.36 in 10.0 mi SW 10.4 mph - N/A   Clear
11:56 PM -13.0 °F -31.3 °F -18.4 °F 77% 30.36 in 10.0 mi SW 9.2 mph - N/A   Clear